• Bienvenue sur Pilotes Québec!
  • Bienvenue sur le site de Pilotes Québec, la nouvelle communauté des pilotes et aviateurs du Québec.
  • Le Cessna 172 de Patrick Vergobbi (C-FUFD "Le Pique-Nuage"), capté par Jean-Pierre Bonin, lors du RVA chez Mo du 28 février 2015, qui fut cette année un grand succès!  Plus de 95 aéronefs (dont trois hélicos) ont été vus sur place, sans compter plusieurs convives venus par la route.
  • Calendrier des activités
  • sujets récents au forum...
  • Les nouvelles en bref...

Connexion


J'ai oublié mon mot de passe
Renvoyer l'e-mail de confirmation
 

Publicité

Vous aimeriez afficher une publicité pour joindre la communauté des pilotes professionnels et privé du Québec?  Cliquez ici pour en savoir plus!

Conditions actuelles

Click for Quebec, Quebec Forecast

METAR - Québec


2015/04/01 12:00
CYQB 011200Z 28005KT 30SM FEW200 M10/M19 A3002 RMK CI1 SLP171

TAF - Québec


2015/04/01 12:42
TAF CYQB 011141Z 0112/0212 30006KT P6SM FEW200
BECMG 0113/0115 26015KT
BECMG 0122/0124 28008KT
FM020000 28010G20KT P6SM SKC
BECMG 0201/0203 24005KT
FM020600 24005KT P6SM FEW240
RMK NXT FCST BY 011800Z